Year,Month,Day,Hour,Minute,Value (Times are PST for temperature in C)
2016,04,08,00,00,10.70
2016,04,08,00,01,10.70
2016,04,08,00,02,10.70
2016,04,08,00,03,10.70
2016,04,08,00,04,10.80
2016,04,08,00,05,10.80
2016,04,08,00,06,10.80
2016,04,08,00,07,10.70
2016,04,08,00,08,10.70
2016,04,08,00,09,10.70
2016,04,08,00,10,10.70
2016,04,08,00,11,10.70
2016,04,08,00,12,10.70
2016,04,08,00,17,10.70
2016,04,08,00,18,10.70
2016,04,08,00,19,10.70
2016,04,08,00,20,10.70
2016,04,08,00,21,10.70
2016,04,08,00,22,10.70
2016,04,08,00,23,10.70
2016,04,08,00,24,10.70
2016,04,08,00,25,10.70
2016,04,08,00,26,10.70
2016,04,08,00,27,10.70
2016,04,08,00,28,10.70
2016,04,08,00,29,10.70
2016,04,08,00,30,10.60
2016,04,08,00,31,10.60
2016,04,08,00,32,10.60
2016,04,08,00,33,10.60
2016,04,08,00,34,10.50
2016,04,08,00,35,10.50
2016,04,08,00,36,10.50
2016,04,08,00,37,10.40
2016,04,08,00,38,10.40
2016,04,08,00,39,10.30
2016,04,08,00,40,10.30
2016,04,08,00,41,10.30
2016,04,08,00,42,10.20
2016,04,08,00,43,10.20
2016,04,08,00,44,10.20
2016,04,08,00,45,10.20
2016,04,08,00,46,10.10
2016,04,08,00,47,10.10
2016,04,08,00,48,10.10
2016,04,08,00,49,10.10
2016,04,08,00,50,10.10
2016,04,08,00,51,10.10
2016,04,08,00,52,10.10
2016,04,08,00,53,10.10
2016,04,08,00,54,10.20
2016,04,08,00,55,10.20
2016,04,08,00,56,10.20
2016,04,08,00,57,10.20
2016,04,08,00,58,10.20
2016,04,08,00,59,10.20
2016,04,08,01,00,10.20
2016,04,08,01,01,10.20
2016,04,08,01,02,10.20
2016,04,08,01,03,10.20
2016,04,08,01,04,10.20
2016,04,08,01,05,10.10
2016,04,08,01,06,10.10
2016,04,08,01,07,10.00
2016,04,08,01,08,9.90
2016,04,08,01,09,9.90
2016,04,08,01,10,9.90
2016,04,08,01,11,9.90
2016,04,08,01,12,9.90
2016,04,08,01,13,9.90
2016,04,08,01,14,9.90
2016,04,08,01,15,9.90
2016,04,08,01,16,9.90
2016,04,08,01,17,9.90
2016,04,08,01,18,9.80
2016,04,08,01,19,9.80
2016,04,08,01,20,9.80
2016,04,08,01,21,9.80
2016,04,08,01,22,9.80
2016,04,08,01,23,9.70
2016,04,08,01,24,9.70
2016,04,08,01,25,9.80
2016,04,08,01,26,9.80
2016,04,08,01,27,9.80
2016,04,08,01,28,9.80
2016,04,08,01,29,9.70
2016,04,08,01,30,9.70
2016,04,08,01,31,9.70
2016,04,08,01,32,9.70
2016,04,08,01,33,9.70
2016,04,08,01,34,9.70
2016,04,08,01,35,9.70
2016,04,08,01,36,9.60
2016,04,08,01,37,9.60
2016,04,08,01,38,9.60
2016,04,08,01,39,9.60
2016,04,08,01,40,9.60
2016,04,08,01,41,9.60
2016,04,08,01,42,9.60
2016,04,08,01,43,9.60
2016,04,08,01,44,9.60
2016,04,08,01,45,9.60
2016,04,08,01,46,9.60
2016,04,08,01,47,9.60
2016,04,08,01,48,9.60
2016,04,08,01,49,9.50
2016,04,08,01,50,9.50
2016,04,08,01,51,9.50
2016,04,08,01,52,9.60
2016,04,08,01,53,9.60
2016,04,08,01,54,9.60
2016,04,08,01,55,9.60
2016,04,08,01,56,9.60
2016,04,08,01,57,9.60
2016,04,08,01,58,9.60
2016,04,08,01,59,9.60
2016,04,08,02,00,9.60
2016,04,08,02,01,9.60
2016,04,08,02,02,9.60
2016,04,08,02,03,9.60
2016,04,08,02,04,9.70
2016,04,08,02,05,9.70
2016,04,08,02,06,9.80
2016,04,08,02,07,9.80
2016,04,08,02,08,9.80
2016,04,08,02,09,9.80
2016,04,08,02,10,9.70
2016,04,08,02,11,9.60
2016,04,08,02,12,9.50
2016,04,08,02,13,9.50
2016,04,08,02,14,9.40
2016,04,08,02,15,9.30
2016,04,08,02,16,9.30
2016,04,08,02,17,9.20
2016,04,08,02,18,9.20
2016,04,08,02,19,9.20
2016,04,08,02,20,9.20
2016,04,08,02,21,9.20
2016,04,08,02,22,9.10
2016,04,08,02,23,9.20
2016,04,08,02,24,9.10
2016,04,08,02,25,9.10
2016,04,08,02,26,9.10
2016,04,08,02,27,9.00
2016,04,08,02,28,9.00
2016,04,08,02,29,9.00
2016,04,08,02,30,9.00
2016,04,08,02,31,9.00
2016,04,08,02,32,9.00
2016,04,08,02,33,8.90
2016,04,08,02,34,8.90
2016,04,08,02,35,8.90
2016,04,08,02,36,8.80
2016,04,08,02,37,8.80
2016,04,08,02,38,8.80
2016,04,08,02,39,8.80
2016,04,08,02,40,8.80
2016,04,08,02,41,8.90
2016,04,08,02,42,8.80
2016,04,08,02,43,8.80
2016,04,08,02,44,8.80
2016,04,08,02,45,8.70
2016,04,08,02,46,8.70
2016,04,08,02,47,8.70
2016,04,08,02,48,8.60
2016,04,08,02,49,8.60
2016,04,08,02,50,8.60
2016,04,08,02,51,8.60
2016,04,08,02,52,8.60
2016,04,08,02,53,8.60
2016,04,08,02,54,8.60
2016,04,08,02,55,8.60
2016,04,08,02,56,8.60
2016,04,08,02,57,8.70
2016,04,08,02,58,8.60
2016,04,08,02,59,8.60
2016,04,08,03,00,8.60
2016,04,08,03,01,8.50
2016,04,08,03,02,8.40
2016,04,08,03,03,8.40
2016,04,08,03,04,8.40
2016,04,08,03,05,8.40
2016,04,08,03,06,8.40
2016,04,08,03,07,8.40
2016,04,08,03,08,8.50
2016,04,08,03,09,8.60
2016,04,08,03,10,8.70
2016,04,08,03,11,8.80
2016,04,08,03,12,8.80
2016,04,08,03,13,8.80
2016,04,08,03,14,8.80
2016,04,08,03,15,8.70
2016,04,08,03,16,8.80
2016,04,08,03,17,8.90
2016,04,08,03,18,9.10
2016,04,08,03,19,9.20
2016,04,08,03,20,9.20
2016,04,08,03,21,9.30
2016,04,08,03,22,9.30
2016,04,08,03,23,9.30
2016,04,08,03,24,9.40
2016,04,08,03,25,9.40
2016,04,08,03,26,9.40
2016,04,08,03,27,9.40
2016,04,08,03,28,9.50
2016,04,08,03,29,9.50
2016,04,08,03,30,9.50
2016,04,08,03,31,9.50
2016,04,08,03,32,9.50
2016,04,08,03,33,9.50
2016,04,08,03,34,9.50
2016,04,08,03,35,9.40
2016,04,08,03,36,9.30
2016,04,08,03,37,9.10
2016,04,08,03,38,9.00
2016,04,08,03,39,8.90
2016,04,08,03,40,8.90
2016,04,08,03,41,8.90
2016,04,08,03,42,8.90
2016,04,08,03,43,8.90
2016,04,08,03,44,8.80
2016,04,08,03,45,8.80
2016,04,08,03,46,8.80
2016,04,08,03,47,8.70
2016,04,08,03,48,8.70
2016,04,08,03,49,8.60
2016,04,08,03,50,8.60
2016,04,08,03,51,8.60
2016,04,08,03,52,8.60
2016,04,08,03,53,8.60
2016,04,08,03,54,8.60
2016,04,08,03,55,8.60
2016,04,08,03,56,8.60
2016,04,08,03,57,8.50
2016,04,08,03,58,8.50
2016,04,08,03,59,8.40
2016,04,08,04,00,8.40
2016,04,08,04,01,8.40
2016,04,08,04,02,8.40
2016,04,08,04,03,8.40
2016,04,08,04,04,8.30
2016,04,08,04,05,8.30
2016,04,08,04,06,8.30
2016,04,08,04,07,8.30
2016,04,08,04,08,8.30
2016,04,08,04,09,8.30
2016,04,08,04,10,8.30
2016,04,08,04,11,8.40
2016,04,08,04,12,8.40
2016,04,08,04,13,8.40
2016,04,08,04,14,8.40
2016,04,08,04,15,8.40
2016,04,08,04,16,8.30
2016,04,08,04,17,8.20
2016,04,08,04,18,8.20
2016,04,08,04,19,8.10
2016,04,08,04,20,8.10
2016,04,08,04,21,8.10
2016,04,08,04,22,8.10
2016,04,08,04,23,8.20
2016,04,08,04,24,8.30
2016,04,08,04,25,8.30
2016,04,08,04,26,8.40
2016,04,08,04,27,8.40
2016,04,08,04,28,8.40
2016,04,08,04,29,8.40
2016,04,08,04,30,8.40
2016,04,08,04,31,8.40
2016,04,08,04,32,8.40
2016,04,08,04,33,8.40
2016,04,08,04,34,8.40
2016,04,08,04,35,8.40
2016,04,08,04,36,8.30
2016,04,08,04,37,8.30
2016,04,08,04,38,8.30
2016,04,08,04,39,8.30
2016,04,08,04,40,8.30
2016,04,08,04,41,8.30
2016,04,08,04,42,8.30
2016,04,08,04,43,8.30
2016,04,08,04,44,8.20
2016,04,08,04,45,8.20
2016,04,08,04,46,8.20
2016,04,08,04,47,8.20
2016,04,08,04,48,8.20
2016,04,08,04,49,8.20
2016,04,08,04,50,8.20
2016,04,08,04,51,8.20
2016,04,08,04,52,8.30
2016,04,08,04,53,8.30
2016,04,08,04,54,8.20
2016,04,08,04,55,8.20
2016,04,08,04,56,8.10
2016,04,08,04,57,8.10
2016,04,08,04,58,8.10
2016,04,08,04,59,8.10
2016,04,08,05,00,8.00
2016,04,08,05,01,8.00
2016,04,08,05,02,8.00
2016,04,08,05,03,8.00
2016,04,08,05,04,8.00
2016,04,08,05,05,8.00
2016,04,08,05,06,8.00
2016,04,08,05,07,7.90
2016,04,08,05,08,7.90
2016,04,08,05,09,7.90
2016,04,08,05,10,7.80
2016,04,08,05,11,7.80
2016,04,08,05,12,7.80
2016,04,08,05,13,7.80
2016,04,08,05,14,7.80
2016,04,08,05,15,7.80
2016,04,08,05,16,7.80
2016,04,08,05,17,7.80
2016,04,08,05,18,7.80
2016,04,08,05,19,7.80
2016,04,08,05,20,7.80
2016,04,08,05,21,7.80
2016,04,08,05,22,7.70
2016,04,08,05,23,7.70
2016,04,08,05,24,7.70
2016,04,08,05,25,7.70
2016,04,08,05,26,7.70
2016,04,08,05,27,7.60
2016,04,08,05,28,7.60
2016,04,08,05,29,7.60
2016,04,08,05,30,7.50
2016,04,08,05,31,7.60
2016,04,08,05,32,7.60
2016,04,08,05,33,7.60
2016,04,08,05,34,7.50
2016,04,08,05,35,7.50
2016,04,08,05,36,7.50
2016,04,08,05,37,7.40
2016,04,08,05,38,7.40
2016,04,08,05,39,7.40
2016,04,08,05,40,7.40
2016,04,08,05,41,7.40
2016,04,08,05,42,7.40
2016,04,08,05,43,7.40
2016,04,08,05,44,7.40
2016,04,08,05,45,7.40
2016,04,08,05,46,7.40
2016,04,08,05,47,7.30
2016,04,08,05,48,7.30
2016,04,08,05,49,7.30
2016,04,08,05,50,7.30
2016,04,08,05,51,7.30
2016,04,08,05,52,7.30
2016,04,08,05,53,7.20
2016,04,08,05,54,7.20
2016,04,08,05,55,7.20
2016,04,08,05,56,7.20
2016,04,08,05,57,7.20
2016,04,08,05,58,7.20
2016,04,08,05,59,7.20
2016,04,08,06,00,7.20
2016,04,08,06,01,7.10
2016,04,08,06,02,7.10
2016,04,08,06,03,7.10
2016,04,08,06,04,7.10
2016,04,08,06,05,7.10
2016,04,08,06,06,7.10
2016,04,08,06,07,7.10
2016,04,08,06,08,7.10
2016,04,08,06,09,7.10
2016,04,08,06,10,7.10
2016,04,08,06,11,7.10
2016,04,08,06,12,7.00
2016,04,08,06,13,7.00
2016,04,08,06,14,7.00
2016,04,08,06,15,7.00
2016,04,08,06,16,7.00
2016,04,08,06,17,6.90
2016,04,08,06,18,6.90
2016,04,08,06,19,6.90
2016,04,08,06,20,6.90
2016,04,08,06,21,6.90
2016,04,08,06,22,6.90
2016,04,08,06,23,6.90
2016,04,08,06,24,6.90
2016,04,08,06,25,6.90
2016,04,08,06,26,6.90
2016,04,08,06,27,6.90
2016,04,08,06,28,6.80
2016,04,08,06,29,6.80
2016,04,08,06,30,6.80
2016,04,08,06,31,6.80
2016,04,08,06,32,6.80
2016,04,08,06,33,6.80
2016,04,08,06,34,6.80
2016,04,08,06,35,6.80
2016,04,08,06,36,6.80
2016,04,08,06,37,6.80
2016,04,08,06,38,6.80
2016,04,08,06,39,6.80
2016,04,08,06,40,6.80
2016,04,08,06,41,6.80
2016,04,08,06,42,6.80
2016,04,08,06,43,6.80
2016,04,08,06,44,6.80
2016,04,08,06,45,6.80
2016,04,08,06,46,6.80
2016,04,08,06,47,6.80
2016,04,08,06,48,6.80
2016,04,08,06,49,6.80
2016,04,08,06,50,6.80
2016,04,08,06,51,6.80
2016,04,08,06,52,6.80
2016,04,08,06,53,6.70
2016,04,08,06,54,6.70
2016,04,08,06,55,6.70
2016,04,08,06,56,6.70
2016,04,08,06,57,6.80
2016,04,08,06,58,6.70
2016,04,08,06,59,6.80
2016,04,08,07,00,6.70
2016,04,08,07,01,6.80
2016,04,08,07,02,6.80
2016,04,08,07,03,6.80
2016,04,08,07,04,6.80
2016,04,08,07,05,6.80
2016,04,08,07,06,6.80
2016,04,08,07,07,6.80
2016,04,08,07,08,6.80
2016,04,08,07,09,6.90
2016,04,08,07,10,6.90
2016,04,08,07,11,7.00
2016,04,08,07,12,7.10
2016,04,08,07,13,7.20
2016,04,08,07,14,7.20
2016,04,08,07,15,7.20
2016,04,08,07,16,7.20
2016,04,08,07,17,7.20
2016,04,08,07,18,7.20
2016,04,08,07,19,7.10
2016,04,08,07,20,7.10
2016,04,08,07,21,7.10
2016,04,08,07,22,7.10
2016,04,08,07,23,7.10
2016,04,08,07,24,7.20
2016,04,08,07,25,7.20
2016,04,08,07,26,7.20
2016,04,08,07,27,7.20
2016,04,08,07,28,7.30
2016,04,08,07,29,7.30
2016,04,08,07,30,7.40
2016,04,08,07,31,7.50
2016,04,08,07,32,7.60
2016,04,08,07,33,7.70
2016,04,08,07,34,7.80
2016,04,08,07,35,7.80
2016,04,08,07,36,7.90
2016,04,08,07,37,7.90
2016,04,08,07,38,7.90
2016,04,08,07,39,8.00
2016,04,08,07,40,8.00
2016,04,08,07,41,8.00
2016,04,08,07,42,8.10
2016,04,08,07,43,8.10
2016,04,08,07,44,8.20
2016,04,08,07,45,8.30
2016,04,08,07,46,8.30
2016,04,08,07,47,8.30
2016,04,08,07,48,8.40
2016,04,08,07,49,8.40
2016,04,08,07,50,8.40
2016,04,08,07,51,8.40
2016,04,08,07,52,8.50
2016,04,08,07,53,8.60
2016,04,08,07,54,8.70
2016,04,08,07,55,8.70
2016,04,08,07,56,8.70
2016,04,08,07,57,8.70
2016,04,08,07,58,8.70
2016,04,08,07,59,8.70
2016,04,08,08,00,8.70
2016,04,08,08,01,8.70
2016,04,08,08,02,8.70
2016,04,08,08,03,8.70
2016,04,08,08,04,8.70
2016,04,08,08,05,8.80
2016,04,08,08,06,8.80
2016,04,08,08,07,8.80
2016,04,08,08,08,8.80
2016,04,08,08,09,8.80
2016,04,08,08,10,8.90
2016,04,08,08,11,8.90
2016,04,08,08,12,8.90
2016,04,08,08,13,8.90
2016,04,08,08,14,8.90
2016,04,08,08,15,8.90
2016,04,08,08,16,8.90
2016,04,08,08,17,8.90
2016,04,08,08,18,9.00
2016,04,08,08,19,9.00
2016,04,08,08,20,9.10
2016,04,08,08,21,9.10
2016,04,08,08,22,9.10
2016,04,08,08,23,9.10
2016,04,08,08,24,9.20
2016,04,08,08,25,9.20
2016,04,08,08,26,9.20
2016,04,08,08,27,9.20
2016,04,08,08,28,9.20
2016,04,08,08,29,9.20
2016,04,08,08,30,9.20
2016,04,08,08,31,9.30
2016,04,08,08,32,9.30
2016,04,08,08,33,9.30
2016,04,08,08,34,9.40
2016,04,08,08,35,9.50
2016,04,08,08,36,9.60
2016,04,08,08,37,9.60
2016,04,08,08,38,9.70
2016,04,08,08,39,9.80
2016,04,08,08,40,9.90
2016,04,08,08,41,10.00
2016,04,08,08,42,10.10
2016,04,08,08,43,10.10
2016,04,08,08,44,10.10
2016,04,08,08,45,10.10
2016,04,08,08,46,10.10
2016,04,08,08,47,10.10
2016,04,08,08,48,10.10
2016,04,08,08,49,10.10
2016,04,08,08,50,10.10
2016,04,08,08,51,10.10
2016,04,08,08,52,10.10
2016,04,08,08,53,10.20
2016,04,08,08,54,10.20
2016,04,08,08,55,10.10
2016,04,08,08,56,10.10
2016,04,08,08,57,10.10
2016,04,08,08,58,10.10
2016,04,08,08,59,10.10
2016,04,08,09,00,10.10
2016,04,08,09,01,10.10
2016,04,08,09,02,10.10
2016,04,08,09,03,10.00
2016,04,08,09,04,10.00
2016,04,08,09,05,10.00
2016,04,08,09,06,10.00
2016,04,08,09,07,10.00
2016,04,08,09,08,10.00
2016,04,08,09,09,10.00
2016,04,08,09,10,10.00
2016,04,08,09,11,10.00
2016,04,08,09,12,10.00
2016,04,08,09,13,10.10
2016,04,08,09,14,10.10
2016,04,08,09,15,10.10
2016,04,08,09,16,10.10
2016,04,08,09,17,10.10
2016,04,08,09,18,10.10
2016,04,08,09,19,10.10
2016,04,08,09,20,10.10
2016,04,08,09,21,10.10
2016,04,08,09,22,10.10
2016,04,08,09,23,10.10
2016,04,08,09,24,10.10
2016,04,08,09,25,10.10
2016,04,08,09,26,10.10
2016,04,08,09,27,10.20
2016,04,08,09,28,10.20
2016,04,08,09,29,10.20
2016,04,08,09,30,10.20
2016,04,08,09,31,10.20
2016,04,08,09,32,10.20
2016,04,08,09,33,10.20
2016,04,08,09,34,10.30
2016,04,08,09,35,10.30
2016,04,08,09,36,10.30
2016,04,08,09,37,10.20
2016,04,08,09,38,10.20
2016,04,08,09,39,10.20
2016,04,08,09,40,10.20
2016,04,08,09,41,10.20
2016,04,08,09,42,10.20
2016,04,08,09,43,10.20
2016,04,08,09,44,10.20
2016,04,08,09,45,10.20
2016,04,08,09,46,10.20
2016,04,08,09,47,10.20
2016,04,08,09,48,10.30
2016,04,08,09,49,10.30
2016,04,08,09,50,10.30
2016,04,08,09,51,10.30
2016,04,08,09,52,10.30
2016,04,08,09,53,10.30
2016,04,08,09,54,10.30
2016,04,08,09,55,10.30
2016,04,08,09,56,10.30
2016,04,08,09,57,10.30
2016,04,08,09,58,10.30
2016,04,08,09,59,10.30
2016,04,08,10,00,10.30
2016,04,08,10,01,10.30
2016,04,08,10,02,10.30
2016,04,08,10,03,10.30
2016,04,08,10,04,10.30
2016,04,08,10,05,10.30
2016,04,08,10,06,10.30
2016,04,08,10,07,10.30
2016,04,08,10,08,10.40
2016,04,08,10,09,10.40
2016,04,08,10,10,10.40
2016,04,08,10,11,10.40
2016,04,08,10,12,10.50
2016,04,08,10,13,10.50
2016,04,08,10,14,10.50
2016,04,08,10,15,10.60
2016,04,08,10,16,10.60
2016,04,08,10,17,10.60
2016,04,08,10,18,10.60
2016,04,08,10,19,10.60
2016,04,08,10,20,10.60
2016,04,08,10,21,10.60
2016,04,08,10,22,10.60
2016,04,08,10,23,10.60
2016,04,08,10,24,10.60
2016,04,08,10,25,10.60
2016,04,08,10,26,10.60
2016,04,08,10,27,10.60
2016,04,08,10,28,10.60
2016,04,08,10,29,10.60
2016,04,08,10,30,10.60
2016,04,08,10,31,10.60
2016,04,08,10,32,10.60
2016,04,08,10,33,10.60
2016,04,08,10,34,10.60
2016,04,08,10,35,10.60
2016,04,08,10,36,10.60
2016,04,08,10,37,10.60
2016,04,08,10,38,10.60
2016,04,08,10,39,10.70
2016,04,08,10,40,10.70
2016,04,08,10,41,10.70
2016,04,08,10,42,10.70
2016,04,08,10,43,10.70
2016,04,08,10,44,10.70
2016,04,08,10,45,10.70
2016,04,08,10,46,10.70
2016,04,08,10,47,10.80
2016,04,08,10,48,10.80
2016,04,08,10,49,10.80
2016,04,08,10,50,10.80
2016,04,08,10,51,10.80
2016,04,08,10,52,10.90
2016,04,08,10,53,10.90
2016,04,08,10,54,10.90
2016,04,08,10,55,11.00
2016,04,08,10,56,11.00
2016,04,08,10,57,11.00
2016,04,08,10,58,11.10
2016,04,08,10,59,11.10
2016,04,08,11,00,11.10
2016,04,08,11,01,11.20
2016,04,08,11,02,11.20
2016,04,08,11,03,11.20
2016,04,08,11,04,11.20
2016,04,08,11,05,11.20
2016,04,08,11,06,11.20
2016,04,08,11,07,11.10
2016,04,08,11,08,11.10
2016,04,08,11,09,11.10
2016,04,08,11,10,11.10
2016,04,08,11,11,11.10
2016,04,08,11,12,11.10
2016,04,08,11,13,11.10
2016,04,08,11,14,11.10
2016,04,08,11,15,11.10
2016,04,08,11,16,11.10
2016,04,08,11,17,11.10
2016,04,08,11,18,11.00
2016,04,08,11,19,11.00
2016,04,08,11,20,11.00
2016,04,08,11,21,11.00
2016,04,08,11,22,11.10
2016,04,08,11,23,11.10
2016,04,08,11,24,11.10
2016,04,08,11,25,11.10
2016,04,08,11,26,11.10
2016,04,08,11,27,11.10
2016,04,08,11,28,11.10
2016,04,08,11,29,11.10
2016,04,08,11,30,11.10
2016,04,08,11,31,11.10
2016,04,08,11,32,11.10
2016,04,08,11,33,11.10
2016,04,08,11,34,11.10
2016,04,08,11,35,11.10
2016,04,08,11,36,11.10
2016,04,08,11,37,11.10
2016,04,08,11,38,11.20
2016,04,08,11,39,11.20
2016,04,08,11,40,11.20
2016,04,08,11,41,11.20
2016,04,08,11,42,11.30
2016,04,08,11,43,11.30
2016,04,08,11,44,11.30
2016,04,08,11,45,11.40
2016,04,08,11,46,11.40
2016,04,08,11,47,11.40
2016,04,08,11,48,11.50
2016,04,08,11,49,11.50
2016,04,08,11,50,11.50
2016,04,08,11,51,11.50
2016,04,08,11,52,11.50
2016,04,08,11,53,11.50
2016,04,08,11,54,11.50
2016,04,08,11,55,11.50
2016,04,08,11,56,11.60
2016,04,08,11,57,11.60
2016,04,08,11,58,11.60
2016,04,08,11,59,11.60
2016,04,08,12,00,11.60
2016,04,08,12,01,11.60
2016,04,08,12,02,11.60
2016,04,08,12,03,11.60
2016,04,08,12,04,11.60
2016,04,08,12,05,11.60
2016,04,08,12,06,11.70
2016,04,08,12,07,11.70
2016,04,08,12,08,11.70
2016,04,08,12,09,11.60
2016,04,08,12,10,11.60
2016,04,08,12,11,11.60
2016,04,08,12,12,11.60
2016,04,08,12,13,11.60
2016,04,08,12,14,11.60
2016,04,08,12,15,11.60
2016,04,08,12,16,11.60
2016,04,08,12,17,11.60
2016,04,08,12,18,11.60
2016,04,08,12,19,11.60
2016,04,08,12,20,11.60
2016,04,08,12,21,11.60
2016,04,08,12,22,11.60
2016,04,08,12,23,11.60
2016,04,08,12,24,11.60
2016,04,08,12,25,11.60
2016,04,08,12,26,11.60
2016,04,08,12,27,11.60
2016,04,08,12,28,11.70
2016,04,08,12,29,11.80
2016,04,08,12,30,11.90
2016,04,08,12,31,12.00
2016,04,08,12,32,12.10
2016,04,08,12,33,12.10
2016,04,08,12,34,12.20
2016,04,08,12,35,12.20
2016,04,08,12,36,12.20
2016,04,08,12,37,12.20
2016,04,08,12,38,12.20
2016,04,08,12,39,12.10
2016,04,08,12,40,12.20
2016,04,08,12,41,12.20
2016,04,08,12,42,12.20
2016,04,08,12,43,12.20
2016,04,08,12,44,12.20
2016,04,08,12,45,12.30
2016,04,08,12,46,12.30
2016,04,08,12,47,12.30
2016,04,08,12,48,12.30
2016,04,08,12,49,12.40
2016,04,08,12,50,12.40
2016,04,08,12,51,12.40
2016,04,08,12,52,12.40
2016,04,08,12,53,12.30
2016,04,08,12,54,12.30
2016,04,08,12,55,12.20
2016,04,08,12,56,12.20
2016,04,08,12,57,12.30
2016,04,08,12,58,12.40
2016,04,08,12,59,12.40
2016,04,08,13,00,12.50
2016,04,08,13,01,12.50
2016,04,08,13,02,12.60
2016,04,08,13,03,12.70
2016,04,08,13,04,12.70
2016,04,08,13,05,12.80
2016,04,08,13,06,12.80
2016,04,08,13,07,12.80
2016,04,08,13,08,12.80
2016,04,08,13,09,12.80
2016,04,08,13,10,12.80
2016,04,08,13,11,12.80
2016,04,08,13,12,12.80
2016,04,08,13,13,12.70
2016,04,08,13,14,12.70
2016,04,08,13,15,12.70
2016,04,08,13,16,12.80
2016,04,08,13,17,12.90
2016,04,08,13,18,13.00
2016,04,08,13,19,13.10
2016,04,08,13,20,13.20
2016,04,08,13,21,13.30
2016,04,08,13,22,13.40
2016,04,08,13,23,13.50
2016,04,08,13,24,13.50
2016,04,08,13,25,13.50
2016,04,08,13,26,13.40
2016,04,08,13,27,13.50
2016,04,08,13,28,13.60
2016,04,08,13,29,13.60
2016,04,08,13,30,13.70
2016,04,08,13,31,13.80
2016,04,08,13,32,13.80
2016,04,08,13,33,13.90
2016,04,08,13,34,13.80
2016,04,08,13,35,13.80
2016,04,08,13,36,13.60
2016,04,08,13,37,13.40
2016,04,08,13,38,13.30
2016,04,08,13,39,13.10
2016,04,08,13,40,13.00
2016,04,08,13,41,12.90
2016,04,08,13,42,12.90
2016,04,08,13,43,12.80
2016,04,08,13,44,12.80
2016,04,08,13,45,12.90
2016,04,08,13,46,12.90
2016,04,08,13,47,12.90
2016,04,08,13,48,13.00
2016,04,08,13,49,12.90
2016,04,08,13,50,12.90
2016,04,08,13,51,12.90
2016,04,08,13,52,12.90
2016,04,08,13,53,12.90
2016,04,08,13,54,12.90
2016,04,08,13,55,12.90
2016,04,08,13,56,12.90
2016,04,08,13,57,12.90
2016,04,08,13,58,12.90
2016,04,08,13,59,12.90
2016,04,08,14,00,12.90
2016,04,08,14,01,12.90
2016,04,08,14,02,12.90
2016,04,08,14,03,13.00
2016,04,08,14,04,13.00
2016,04,08,14,05,13.10
2016,04,08,14,06,13.10
2016,04,08,14,07,13.20
2016,04,08,14,08,13.30
2016,04,08,14,09,13.40
2016,04,08,14,10,13.30
2016,04,08,14,11,13.30
2016,04,08,14,12,13.30
2016,04,08,14,13,13.30
2016,04,08,14,14,13.30
2016,04,08,14,15,13.20
2016,04,08,14,16,13.00
2016,04,08,14,17,12.80
2016,04,08,14,18,12.60
2016,04,08,14,19,12.40
2016,04,08,14,20,12.30
2016,04,08,14,21,12.20
2016,04,08,14,22,12.20
2016,04,08,14,23,12.20
2016,04,08,14,24,12.10
2016,04,08,14,25,12.10
2016,04,08,14,26,12.10
2016,04,08,14,27,12.10
2016,04,08,14,28,12.10
2016,04,08,14,29,12.10
2016,04,08,14,30,12.10
2016,04,08,14,31,12.10
2016,04,08,14,32,12.20
2016,04,08,14,33,12.40
2016,04,08,14,34,12.50
2016,04,08,14,35,12.60
2016,04,08,14,36,12.60
2016,04,08,14,37,12.60
2016,04,08,14,38,12.60
2016,04,08,14,39,12.70
2016,04,08,14,40,12.80
2016,04,08,14,41,12.70
2016,04,08,14,42,12.70
2016,04,08,14,43,12.70
2016,04,08,14,44,12.80
2016,04,08,14,45,12.80
2016,04,08,14,46,12.90
2016,04,08,14,47,13.00
2016,04,08,14,48,13.10
2016,04,08,14,49,13.10
2016,04,08,14,50,13.10
2016,04,08,14,51,13.10
2016,04,08,14,52,13.10
2016,04,08,14,53,13.10
2016,04,08,14,54,13.10
2016,04,08,14,55,13.10
2016,04,08,14,56,13.10
2016,04,08,14,57,13.10
2016,04,08,14,58,13.10
2016,04,08,14,59,13.00
2016,04,08,15,00,12.90
2016,04,08,15,01,12.90
2016,04,08,15,02,12.90
2016,04,08,15,03,12.90
2016,04,08,15,04,12.90
2016,04,08,15,05,12.90
2016,04,08,15,06,13.00
2016,04,08,15,07,13.00
2016,04,08,15,08,13.10
2016,04,08,15,09,13.20
2016,04,08,15,10,13.20
2016,04,08,15,11,13.30
2016,04,08,15,12,13.30
2016,04,08,15,13,13.40
2016,04,08,15,14,13.40
2016,04,08,15,15,13.30
2016,04,08,15,16,13.20
2016,04,08,15,17,13.10
2016,04,08,15,18,12.90
2016,04,08,15,19,12.80
2016,04,08,15,20,12.80
2016,04,08,15,21,12.80
2016,04,08,15,22,12.80
2016,04,08,15,23,12.80
2016,04,08,15,24,12.80
2016,04,08,15,25,12.80
2016,04,08,15,26,12.90
2016,04,08,15,27,13.00
2016,04,08,15,28,13.00
2016,04,08,15,29,13.10
2016,04,08,15,30,13.10
2016,04,08,15,31,13.10
2016,04,08,15,32,13.10
2016,04,08,15,33,13.00
2016,04,08,15,34,13.00
2016,04,08,15,35,13.00
2016,04,08,15,36,13.00
2016,04,08,15,37,13.00
2016,04,08,15,38,13.10
2016,04,08,15,39,13.00
2016,04,08,15,40,12.90
2016,04,08,15,41,12.90
2016,04,08,15,42,12.90
2016,04,08,15,43,12.90
2016,04,08,15,44,12.80
2016,04,08,15,45,12.80
2016,04,08,15,46,12.80
2016,04,08,15,47,12.80
2016,04,08,15,48,12.80
2016,04,08,15,49,12.90
2016,04,08,15,50,13.00
2016,04,08,15,51,13.10
2016,04,08,15,52,13.10
2016,04,08,15,53,13.10
2016,04,08,15,54,13.10
2016,04,08,15,55,13.00
2016,04,08,15,56,12.90
2016,04,08,15,57,12.90
2016,04,08,15,58,12.90
2016,04,08,15,59,12.90
2016,04,08,16,00,12.80
2016,04,08,16,01,12.80
2016,04,08,16,02,12.70
2016,04,08,16,03,12.70
2016,04,08,16,04,12.60
2016,04,08,16,05,12.60
2016,04,08,16,06,12.60
2016,04,08,16,07,12.60
2016,04,08,16,08,12.60
2016,04,08,16,09,12.70
2016,04,08,16,10,12.70
2016,04,08,16,11,12.70
2016,04,08,16,12,12.70
2016,04,08,16,13,12.80
2016,04,08,16,14,12.70
2016,04,08,16,15,12.70
2016,04,08,16,16,12.70
2016,04,08,16,17,12.70
2016,04,08,16,18,12.70
2016,04,08,16,19,12.80
2016,04,08,16,20,12.80
2016,04,08,16,21,12.90
2016,04,08,16,22,12.90
2016,04,08,16,23,12.90
2016,04,08,16,24,13.00
2016,04,08,16,25,13.00
2016,04,08,16,26,13.00
2016,04,08,16,27,12.90
2016,04,08,16,28,12.90
2016,04,08,16,29,12.90
2016,04,08,16,30,12.90
2016,04,08,16,31,12.90
2016,04,08,16,32,13.00
2016,04,08,16,33,13.00
2016,04,08,16,34,13.00
2016,04,08,16,35,13.10
2016,04,08,16,36,13.10
2016,04,08,16,37,13.10
2016,04,08,16,38,13.10
2016,04,08,16,39,13.20
2016,04,08,16,40,13.20
2016,04,08,16,41,13.20
2016,04,08,16,42,13.30
2016,04,08,16,43,13.30
2016,04,08,16,44,13.40
2016,04,08,16,45,13.40
2016,04,08,16,46,13.40
2016,04,08,16,47,13.50
2016,04,08,16,48,13.40
2016,04,08,16,49,13.40
2016,04,08,16,50,13.30
2016,04,08,16,51,13.30
2016,04,08,16,52,13.30
2016,04,08,16,53,13.20
2016,04,08,16,54,13.20
2016,04,08,16,55,13.10
2016,04,08,16,56,13.00
2016,04,08,16,57,13.00
2016,04,08,16,58,12.90
2016,04,08,16,59,12.90
2016,04,08,17,00,12.90
2016,04,08,17,01,12.80
2016,04,08,17,02,12.80
2016,04,08,17,03,12.80
2016,04,08,17,04,12.80
2016,04,08,17,05,12.80
2016,04,08,17,06,12.80
2016,04,08,17,07,12.80
2016,04,08,17,08,12.70
2016,04,08,17,09,12.70
2016,04,08,17,10,12.70
2016,04,08,17,11,12.70
2016,04,08,17,12,12.60
2016,04,08,17,13,12.60
2016,04,08,17,14,12.50
2016,04,08,17,15,12.50
2016,04,08,17,16,12.50
2016,04,08,17,17,12.60
2016,04,08,17,18,12.60
2016,04,08,17,19,12.60
2016,04,08,17,20,12.60
2016,04,08,17,21,12.60
2016,04,08,17,22,12.50
2016,04,08,17,23,12.50
2016,04,08,17,24,12.40
2016,04,08,17,25,12.40
2016,04,08,17,26,12.30
2016,04,08,17,27,12.30
2016,04,08,17,28,12.30
2016,04,08,17,29,12.30
2016,04,08,17,30,12.40
2016,04,08,17,31,12.40
2016,04,08,17,32,12.50
2016,04,08,17,33,12.50
2016,04,08,17,34,12.50
2016,04,08,17,35,12.60
2016,04,08,17,36,12.50
2016,04,08,17,37,12.50
2016,04,08,17,38,12.50
2016,04,08,17,39,12.40
2016,04,08,17,40,12.40
2016,04,08,17,41,12.40
2016,04,08,17,42,12.40
2016,04,08,17,43,12.50